When you browse on this site, cookies collect data to enhance your experience and personalize the content and advertising you see.
Visit our Privacy Policy to learn more. By continuing to use the site, you agree to this use of cookies and data.

Hourly Weather Chortkiv

Today, 10 July, Friday

Time Temperature Precipitation Wind Pressure Humidity
00:00 +15°C° 0 mm 2 mps 737 mmHg 89%
01:00 +14°C° 0 mm 2 mps 737 mmHg 89%
02:00 +14°C° 0 mm 2 mps 737 mmHg 90%
03:00 +14°C° 0 mm 2 mps 737 mmHg 90%
04:00 +14°C° 0 mm 2 mps 737 mmHg 91%
05:00 +14°C° 0 mm 2 mps 737 mmHg 92%
06:00 +16°C° 0 mm 2 mps 737 mmHg 88%
07:00 +17°C° 0 mm 3 mps 737 mmHg 85%
08:00 +19°C° 0 mm 3 mps 737 mmHg 82%
09:00 +21°C° 0 mm 3 mps 737 mmHg 78%
10:00 +24°C° 0 mm 3 mps 737 mmHg 75%
11:00 +25°C° 0 mm 3 mps 737 mmHg 71%
12:00 +26°C° 0 mm 3 mps 737 mmHg 69%
13:00 +27°C° 0 mm 3 mps 737 mmHg 66%
14:00 +28°C° 0 mm 3 mps 736 mmHg 63%
15:00 +28°C° 0.1 mm 3 mps 736 mmHg 65%
16:00 +28°C° 0.1 mm 3 mps 736 mmHg 68%
17:00 +28°C° 0.1 mm 3 mps 736 mmHg 71%
18:00 +26°C° 0.1 mm 3 mps 736 mmHg 75%
19:00 +25°C° 0.1 mm 3 mps 736 mmHg 80%
20:00 +22°C° 0.1 mm 3 mps 736 mmHg 84%
21:00 +21°C° 0 mm 3 mps 736 mmHg 85%
22:00 +21°C° 0 mm 3 mps 736 mmHg 86%
23:00 +20°C° 0 mm 3 mps 736 mmHg 87%

Tomorrow, 11 July, Saturday

Time Temperature Precipitation Wind Pressure Humidity
00:00 +19°C° 0 mm 3 mps 736 mmHg 88%
01:00 +19°C° 0 mm 3 mps 736 mmHg 90%
02:00 +18°C° 0 mm 2 mps 736 mmHg 91%
03:00 +18°C° 0 mm 2 mps 736 mmHg 92%
04:00 +18°C° 0 mm 2 mps 736 mmHg 92%
05:00 +18°C° 0 mm 2 mps 736 mmHg 93%
06:00 +19°C° 0 mm 2 mps 736 mmHg 89%
07:00 +20°C° 0 mm 2 mps 736 mmHg 86%
08:00 +23°C° 0 mm 2 mps 736 mmHg 82%
09:00 +24°C° 0 mm 3 mps 736 mmHg 79%
10:00 +26°C° 0 mm 3 mps 736 mmHg 76%
11:00 +27°C° 0 mm 3 mps 736 mmHg 73%
12:00 +28°C° 1 mm 4 mps 736 mmHg 71%
13:00 +28°C° 1 mm 4 mps 736 mmHg 70%
14:00 +28°C° 1 mm 4 mps 735 mmHg 69%
15:00 +28°C° 0.3 mm 4 mps 735 mmHg 71%
16:00 +28°C° 0.3 mm 4 mps 735 mmHg 72%
17:00 +27°C° 0.3 mm 4 mps 735 mmHg 74%
18:00 +26°C° 0 mm 4 mps 734 mmHg 76%
19:00 +25°C° 0 mm 3 mps 734 mmHg 78%
20:00 +22°C° 0 mm 3 mps 734 mmHg 80%
21:00 +23°C° 0.2 mm 2 mps 735 mmHg 81%
22:00 +21°C° 0.2 mm 2 mps 735 mmHg 81%
23:00 +20°C° 0.2 mm 2 mps 735 mmHg 82%

Day after tomorrow, 12 July, Sunday

Time Temperature Precipitation Wind Pressure Humidity
00:00 +19°C° 0 mm 2 mps 735 mmHg 85%
01:00 +19°C° 0 mm 2 mps 735 mmHg 89%
02:00 +18°C° 0 mm 3 mps 735 mmHg 92%
03:00 +18°C° 0 mm 3 mps 735 mmHg 93%
04:00 +18°C° 0 mm 3 mps 735 mmHg 94%
05:00 +18°C° 0 mm 4 mps 735 mmHg 94%
06:00 +17°C° 0.3 mm 4 mps 735 mmHg 94%
07:00 +17°C° 0.3 mm 4 mps 735 mmHg 94%
08:00 +16°C° 0.3 mm 5 mps 735 mmHg 94%
09:00 +16°C° 0.2 mm 5 mps 735 mmHg 93%
10:00 +17°C° 0.2 mm 4 mps 736 mmHg 93%
11:00 +18°C° 0.2 mm 4 mps 736 mmHg 92%
12:00 +16°C° 0 mm 5 mps 736 mmHg 91%
13:00 +16°C° 0 mm 5 mps 736 mmHg 91%
14:00 +16°C° 0 mm 5 mps 736 mmHg 90%
15:00 +15°C° 0 mm 6 mps 736 mmHg 89%
16:00 +15°C° 0 mm 6 mps 736 mmHg 89%
17:00 +14°C° 0 mm 7 mps 736 mmHg 89%
18:00 +12°C° 2.5 mm 7 mps 736 mmHg 91%
19:00 +11°C° 2.5 mm 7 mps 736 mmHg 93%
20:00 +10°C° 2.5 mm 7 mps 737 mmHg 95%
21:00 +10°C° 1.2 mm 7 mps 737 mmHg 95%
22:00 +10°C° 1.2 mm 7 mps 737 mmHg 94%
23:00 +10°C° 1.2 mm 7 mps 737 mmHg 94%

13 July, Monday

Time Temperature Precipitation Wind Pressure Humidity
00:00 +9°C° 0.2 mm 7 mps 737 mmHg 93%
01:00 +9°C° 0.2 mm 6 mps 737 mmHg 93%
02:00 +9°C° 0.2 mm 6 mps 737 mmHg 92%
03:00 +9°C° 0 mm 6 mps 737 mmHg 92%
04:00 +9°C° 0 mm 6 mps 737 mmHg 92%
05:00 +9°C° 0 mm 5 mps 737 mmHg 92%
06:00 +10°C° 0 mm 5 mps 737 mmHg 92%
07:00 +10°C° 0 mm 5 mps 737 mmHg 92%
08:00 +10°C° 0 mm 5 mps 737 mmHg 91%
09:00 +12°C° 0.1 mm 5 mps 737 mmHg 89%
10:00 +13°C° 0.1 mm 5 mps 737 mmHg 86%
11:00 +14°C° 0.1 mm 5 mps 737 mmHg 84%
12:00 +15°C° 0.2 mm 5 mps 737 mmHg 82%
13:00 +15°C° 0.2 mm 5 mps 737 mmHg 80%
14:00 +16°C° 0.2 mm 5 mps 737 mmHg 78%
15:00 +16°C° 0.1 mm 5 mps 736 mmHg 76%
16:00 +17°C° 0.1 mm 5 mps 736 mmHg 74%
17:00 +17°C° 0.1 mm 5 mps 736 mmHg 72%
18:00 +17°C° 0.2 mm 4 mps 736 mmHg 77%
19:00 +15°C° 0.2 mm 4 mps 736 mmHg 83%
20:00 +13°C° 0.2 mm 4 mps 736 mmHg 88%
21:00 +13°C° 0 mm 4 mps 736 mmHg 90%
22:00 +12°C° 0 mm 4 mps 736 mmHg 92%
23:00 +11°C° 0 mm 3 mps 736 mmHg 94%

14 July, Tuesday

Time Temperature Precipitation Wind Pressure Humidity
00:00 +11°C° 0 mm 4 mps 736 mmHg 94%
01:00 +10°C° 0 mm 4 mps 736 mmHg 94%
02:00 +10°C° 0 mm 4 mps 736 mmHg 95%
03:00 +8°C° 0 mm 4 mps 735 mmHg 95%
04:00 +8°C° 0 mm 4 mps 735 mmHg 95%
05:00 +8°C° 0 mm 4 mps 735 mmHg 95%
06:00 +11°C° 0 mm 4 mps 735 mmHg 91%
07:00 +12°C° 0 mm 5 mps 735 mmHg 88%
08:00 +14°C° 0 mm 6 mps 735 mmHg 85%
09:00 +15°C° 0.1 mm 6 mps 735 mmHg 80%
10:00 +17°C° 0.1 mm 6 mps 735 mmHg 75%
11:00 +19°C° 0.1 mm 6 mps 735 mmHg 70%
12:00 +19°C° 0.2 mm 5 mps 735 mmHg 70%
13:00 +19°C° 0.2 mm 5 mps 735 mmHg 71%
14:00 +20°C° 0.2 mm 5 mps 735 mmHg 71%
15:00 +20°C° 0.2 mm 5 mps 734 mmHg 72%
16:00 +20°C° 0.2 mm 5 mps 734 mmHg 73%
17:00 +20°C° 0.2 mm 5 mps 734 mmHg 74%
18:00 +19°C° 0 mm 4 mps 734 mmHg 79%
19:00 +17°C° 0 mm 3 mps 735 mmHg 83%
20:00 +16°C° 0 mm 3 mps 735 mmHg 88%
21:00 +14°C° 0 mm 3 mps 735 mmHg 90%
22:00 +13°C° 0 mm 3 mps 735 mmHg 92%
23:00 +14°C° 0 mm 2 mps 735 mmHg 93%

15 July, Wednesday

Time Temperature Precipitation Wind Pressure Humidity
00:00 +13°C° 0 mm 2 mps 735 mmHg 93%
01:00 +13°C° 0 mm 2 mps 735 mmHg 94%
02:00 +13°C° 0 mm 2 mps 735 mmHg 94%
03:00 +13°C° 0 mm 2 mps 735 mmHg 94%
04:00 +13°C° 0 mm 2 mps 735 mmHg 94%
05:00 +12°C° 0 mm 2 mps 735 mmHg 94%
06:00 +14°C° 0 mm 2 mps 735 mmHg 90%
07:00 +15°C° 0 mm 2 mps 735 mmHg 86%
08:00 +17°C° 0 mm 2 mps 735 mmHg 83%
09:00 +18°C° 0.1 mm 2 mps 735 mmHg 78%
10:00 +19°C° 0.1 mm 2 mps 735 mmHg 74%
11:00 +20°C° 0.1 mm 2 mps 735 mmHg 69%
12:00 +21°C° 0.2 mm 2 mps 735 mmHg 67%
13:00 +21°C° 0.2 mm 2 mps 735 mmHg 65%
14:00 +23°C° 0.2 mm 2 mps 735 mmHg 63%
15:00 +23°C° 0 mm 2 mps 735 mmHg 63%
16:00 +23°C° 0 mm 2 mps 734 mmHg 63%
17:00 +23°C° 0 mm 2 mps 734 mmHg 63%
18:00 +21°C° 0 mm 2 mps 734 mmHg 68%
19:00 +20°C° 0 mm 1 mps 734 mmHg 73%
20:00 +19°C° 0 mm 1 mps 734 mmHg 78%
21:00 +18°C° 0 mm 1 mps 734 mmHg 80%
22:00 +16°C° 0 mm 1 mps 734 mmHg 83%
23:00 +15°C° 0 mm 1 mps 735 mmHg 85%
Show more